| time (UTC) | temp C | wind direction | speed KPH | gust KPH | rain 1hr cm | rain 24hr cm | rain mn cm | humidity % | barometer mb |
| 20260508090345 | 2 | 308 | 1.6 | 1.6 | 0.00 | 0.23 | 0.00 | 71 | 1014.6 |
| 20260508085344 | 2 | 308 | 0.0 | 3.2 | 0.00 | 0.23 | 0.00 | 70 | 1014.2 |
| 20260508084343 | 3 | 308 | 0.0 | 3.2 | 0.00 | 0.23 | 0.00 | 70 | 1014.2 |
| 20260508083342 | 3 | 216 | 0.0 | 0.0 | 0.00 | 0.23 | 0.00 | 70 | 1014.2 |
| 20260508082340 | 3 | 215 | 0.0 | 0.0 | 0.00 | 0.23 | 0.00 | 70 | 1013.9 |
| 20260508081339 | 3 | 216 | 0.0 | 0.0 | 0.00 | 0.23 | 0.00 | 70 | 1013.9 |
| 20260508080339 | 3 | 215 | 0.0 | 0.0 | 0.00 | 0.23 | 0.00 | 70 | 1013.9 |
| 20260508075337 | 3 | 216 | 0.0 | 0.0 | 0.00 | 0.23 | 0.00 | 70 | 1013.5 |
| 20260508074335 | 3 | 275 | 0.0 | 0.0 | 0.00 | 0.25 | 0.00 | 70 | 1013.5 |
| 20260508073334 | 3 | 245 | 0.0 | 0.0 | 0.00 | 0.25 | 0.00 | 70 | 1013.5 |
| 20260508072333 | 3 | 245 | 0.0 | 0.0 | 0.00 | 0.25 | 0.00 | 70 | 1013.5 |
| 20260508071259 | 3 | 245 | 0.0 | 0.0 | 0.00 | 0.25 | 0.00 | 70 | 1013.5 |
| 20260508070257 | 3 | 245 | 0.0 | 0.0 | 0.00 | 0.25 | 0.00 | 70 | 1013.5 |
| 20260508065256 | 3 | 245 | 0.0 | 0.0 | 0.00 | 0.25 | 0.00 | 70 | 1013.5 |
| 20260508064255 | 4 | 245 | 0.0 | 0.0 | 0.00 | 0.25 | 0.00 | 70 | 1013.2 |
| 20260508063254 | 4 | 245 | 0.0 | 0.0 | 0.00 | 0.25 | 0.00 | 70 | 1013.2 |
| 20260508062253 | 4 | 245 | 0.0 | 0.0 | 0.00 | 0.25 | 0.00 | 70 | 1013.2 |
| 20260508061252 | 4 | 245 | 0.0 | 0.0 | 0.00 | 0.25 | 0.00 | 70 | 1013.2 |
| 20260508060251 | 5 | 245 | 0.0 | 0.0 | 0.00 | 0.25 | 0.00 | 70 | 1013.2 |
| 20260508055250 | 5 | 245 | 0.0 | 0.0 | 0.00 | 0.25 | 0.00 | 70 | 1013.5 |
| 20260508054249 | 5 | 245 | 0.0 | 0.0 | 0.00 | 0.25 | 0.00 | 69 | 1013.2 |
| 20260508053249 | 5 | 245 | 0.0 | 0.0 | 0.00 | 0.25 | 0.00 | 69 | 1013.2 |
| 20260508052248 | 5 | 245 | 0.0 | 0.0 | 0.00 | 0.25 | 0.00 | 70 | 1013.2 |
| 20260508051145 | 5 | 245 | 0.0 | 0.0 | 0.00 | 0.25 | 0.00 | 70 | 1013.2 |
| 20260508050144 | 5 | 245 | 0.0 | 0.0 | 0.00 | 0.25 | 0.00 | 69 | 1013.2 |
| 20260508045143 | 5 | 245 | 0.0 | 0.0 | 0.00 | 0.25 | 0.00 | 70 | 1012.9 |
| 20260508044142 | 5 | 245 | 0.0 | 0.0 | 0.00 | 0.25 | 0.00 | 71 | 1012.5 |
| 20260508043008 | 6 | 245 | 0.0 | 0.0 | 0.00 | 0.25 | 0.00 | 70 | 1012.5 |
| 20260508042007 | 6 | 245 | 0.0 | 0.0 | 0.00 | 0.25 | 0.00 | 69 | 1012.5 |
| 20260508040934 | 6 | 245 | 0.0 | 1.6 | 0.00 | 0.25 | 0.00 | 69 | 1012.5 |
| 20260508035933 | 6 | 245 | 0.0 | 1.6 | 0.00 | 0.25 | 0.25 | 69 | 1012.2 |
| 20260508034932 | 6 | 245 | 0.0 | 0.0 | 0.00 | 0.25 | 0.25 | 70 | 1012.2 |
| 20260508033859 | 6 | 234 | 0.0 | 0.0 | 0.00 | 0.25 | 0.25 | 70 | 1012.2 |
| 20260508032827 | 6 | 234 | 0.0 | 0.0 | 0.00 | 0.28 | 0.25 | 70 | 1011.9 |
| 20260508031827 | 7 | 271 | 0.0 | 0.0 | 0.00 | 0.30 | 0.25 | 71 | 1011.9 |
| 20260508030826 | 7 | 271 | 0.0 | 0.0 | 0.00 | 0.36 | 0.25 | 71 | 1011.9 |
| 20260508025825 | 7 | 271 | 0.0 | 0.0 | 0.00 | 0.41 | 0.25 | 71 | 1011.9 |
| 20260508024824 | 7 | 271 | 0.0 | 0.0 | 0.00 | 0.43 | 0.25 | 71 | 1011.9 |
| 20260508023823 | 7 | 271 | 0.0 | 0.0 | 0.00 | 0.43 | 0.25 | 71 | 1011.2 |
| 20260508022822 | 7 | 271 | 0.0 | 0.0 | 0.00 | 0.43 | 0.25 | 71 | 1011.2 |
| 20260508021820 | 8 | 271 | 0.0 | 0.0 | 0.00 | 0.43 | 0.25 | 72 | 1011.2 |
| 20260508020818 | 8 | 271 | 0.0 | 0.0 | 0.00 | 0.46 | 0.25 | 73 | 1010.8 |
| 20260508015817 | 8 | 271 | 0.0 | 1.6 | 0.00 | 0.46 | 0.25 | 73 | 1010.8 |
| 20260508014816 | 8 | 263 | 1.6 | 1.6 | 0.00 | 0.46 | 0.25 | 72 | 1010.8 |
| 20260508013815 | 8 | 264 | 0.0 | 0.0 | 0.00 | 0.46 | 0.25 | 74 | 1010.5 |
| 20260508012814 | 9 | 278 | 0.0 | 0.0 | 0.00 | 0.46 | 0.25 | 76 | 1010.2 |
| 20260508011814 | 10 | 278 | 0.0 | 0.0 | 0.00 | 0.46 | 0.25 | 75 | 1009.8 |
| 20260508010813 | 10 | 278 | 0.0 | 1.6 | 0.00 | 0.46 | 0.25 | 74 | 1009.8 |
| 20260508005740 | 10 | 278 | 1.6 | 1.6 | 0.00 | 0.46 | 0.25 | 73 | 1009.5 |
| 20260508004739 | 11 | 242 | 0.0 | 1.6 | 0.00 | 0.46 | 0.25 | 76 | 1009.8 |
| 20260508003738 | 11 | 242 | 0.0 | 1.6 | 0.00 | 0.46 | 0.25 | 77 | 1009.8 |
| 20260508002735 | 12 | 198 | 0.0 | 0.0 | 0.00 | 0.46 | 0.25 | 80 | 1009.8 |
| 20260508001735 | 12 | 198 | 0.0 | 0.0 | 0.00 | 0.46 | 0.25 | 81 | 1009.5 |
| 20260508000734 | 13 | 211 | 0.0 | 3.2 | 0.00 | 0.46 | 0.25 | 82 | 1009.5 |
| 20260507235733 | 13 | 207 | 1.6 | 3.2 | 0.00 | 0.46 | 0.25 | 82 | 1009.8 |
| 20260507234701 | 13 | 217 | 0.0 | 0.0 | 0.00 | 0.46 | 0.25 | 66 | 1009.5 |
| 20260507233629 | 13 | 109 | 0.0 | 0.0 | 0.00 | 0.46 | 0.25 | 74 | 1009.1 |
| 20260507232558 | 13 | 109 | 0.0 | 0.0 | 0.00 | 0.46 | 0.25 | 76 | 1009.1 |
| 20260507231556 | 13 | 109 | 0.0 | 0.0 | 0.00 | 0.46 | 0.25 | 75 | 1008.8 |
| 20260507230555 | 13 | 109 | 0.0 | 0.0 | 0.00 | 0.46 | 0.25 | 76 | 1008.5 |
| 20260507225554 | 13 | 108 | 0.0 | 0.0 | 0.00 | 0.46 | 0.25 | 78 | 1008.8 |
| 20260507224553 | 13 | 118 | 0.0 | 3.2 | 0.00 | 0.46 | 0.25 | 80 | 1008.8 |
| 20260507223552 | 14 | 109 | 0.0 | 6.4 | 0.00 | 0.46 | 0.25 | 81 | 1008.5 |
| 20260507222551 | 14 | 99 | 0.0 | 6.4 | 0.00 | 0.46 | 0.25 | 76 | 1007.8 |
| 20260507221551 | 14 | 108 | 3.2 | 6.4 | 0.00 | 0.46 | 0.25 | 71 | 1008.1 |
| 20260507220550 | 14 | 112 | 0.0 | 6.4 | 0.00 | 0.46 | 0.25 | 74 | 1008.5 |
| 20260507215549 | 14 | 94 | 0.0 | 8.0 | 0.00 | 0.46 | 0.25 | 72 | 1008.5 |
| 20260507214517 | 14 | 117 | 0.0 | 8.0 | 0.00 | 0.46 | 0.25 | 72 | 1008.5 |
| 20260507213445 | 14 | 103 | 3.2 | 6.4 | 0.00 | 0.46 | 0.25 | 66 | 1008.1 |
| 20260507212444 | 14 | 105 | 3.2 | 9.7 | 0.00 | 0.46 | 0.25 | 66 | 1008.1 |
| 20260507211443 | 15 | 85 | 4.8 | 9.7 | 0.00 | 0.46 | 0.25 | 61 | 1008.1 |
| 20260507210442 | 14 | 79 | 3.2 | 11.3 | 0.00 | 0.46 | 0.25 | 60 | 1008.1 |
| 20260507205441 | 14 | 63 | 0.0 | 9.7 | 0.00 | 0.46 | 0.25 | 60 | 1007.8 |
| 20260507204409 | 14 | 92 | 1.6 | 4.8 | 0.00 | 0.46 | 0.25 | 60 | 1008.1 |
| 20260507203408 | 13 | 96 | 3.2 | 4.8 | 0.00 | 0.46 | 0.25 | 61 | 1007.8 |
| 20260507202407 | 13 | 94 | 1.6 | 4.8 | 0.00 | 0.46 | 0.25 | 61 | 1008.1 |
| 20260507201405 | 13 | 125 | 3.2 | 6.4 | 0.03 | 0.46 | 0.25 | 61 | 1008.1 |
| 20260507200403 | 13 | 202 | 0.0 | 6.4 | 0.03 | 0.46 | 0.25 | 61 | 1008.1 |
| 20260507195401 | 13 | 51 | 0.0 | 4.8 | 0.03 | 0.46 | 0.25 | 61 | 1008.5 |
| 20260507194227 | 13 | 77 | 1.6 | 4.8 | 0.03 | 0.46 | 0.25 | 61 | 1008.5 |
| 20260507193226 | 13 | 302 | 0.0 | 4.8 | 0.05 | 0.46 | 0.25 | 61 | 1003.1 |
| 20260507192225 | 13 | 356 | 1.6 | 8.0 | 0.05 | 0.46 | 0.25 | 62 | 1008.5 |
| 20260507191223 | 13 | 77 | 1.6 | 8.0 | 0.03 | 0.43 | 0.23 | 62 | 1008.1 |
| 20260507190222 | 13 | 267 | 3.2 | 8.0 | 0.05 | 0.43 | 0.23 | 61 | 1008.5 |
| 20260507185220 | 14 | 350 | 3.2 | 6.4 | 0.05 | 0.43 | 0.23 | 61 | 1008.5 |
| 20260507184219 | 13 | 71 | 3.2 | 6.4 | 0.08 | 0.43 | 0.23 | 61 | 1008.5 |
| 20260507183219 | 13 | 309 | 3.2 | 8.0 | 0.05 | 0.41 | 0.20 | 61 | 1008.5 |
| 20260507182217 | 13 | 70 | 1.6 | 8.0 | 0.05 | 0.41 | 0.20 | 61 | 1008.5 |
| 20260507181216 | 13 | 60 | 1.6 | 6.4 | 0.05 | 0.41 | 0.20 | 61 | 1008.5 |
| 20260507180144 | 13 | 15 | 4.8 | 6.4 | 0.03 | 0.38 | 0.18 | 61 | 1008.5 |
| 20260507175112 | 13 | 86 | 0.0 | 9.7 | 0.03 | 0.38 | 0.18 | 61 | 1008.5 |
| 20260507174111 | 13 | 86 | 3.2 | 9.7 | 0.03 | 0.38 | 0.15 | 62 | 1008.5 |
| 20260507173110 | 13 | 71 | 1.6 | 14.5 | 0.08 | 0.38 | 0.15 | 62 | 1008.5 |
| 20260507172109 | 14 | 82 | 3.2 | 11.3 | 0.08 | 0.41 | 0.15 | 62 | 1008.5 |
| 20260507171108 | 14 | 58 | 3.2 | 16.1 | 0.08 | 0.41 | 0.15 | 61 | 1008.5 |
| 20260507170106 | 14 | 64 | 3.2 | 12.9 | 0.10 | 0.41 | 0.15 | 61 | 1008.1 |
| 20260507165034 | 14 | 103 | 4.8 | 12.9 | 0.10 | 0.41 | 0.15 | 61 | 1008.1 |
| 20260507164033 | 15 | 71 | 4.8 | 9.7 | 0.08 | 0.38 | 0.13 | 62 | 1008.1 |
| 20260507163032 | 15 | 85 | 3.2 | 8.0 | 0.03 | 0.33 | 0.08 | 62 | 1008.5 |
| 20260507162001 | 15 | 75 | 3.2 | 8.0 | 0.03 | 0.33 | 0.08 | 61 | 1008.5 |
| 20260507160959 | 15 | 98 | 3.2 | 9.7 | 0.03 | 0.33 | 0.08 | 61 | 1008.5 |
| 20260507155957 | 15 | 110 | 3.2 | 17.7 | 0.00 | 0.33 | 0.05 | 61 | 1008.5 |
| 20260507154956 | 16 | 81 | 3.2 | 17.7 | 0.00 | 0.33 | 0.05 | 61 | 1008.1 |
| 20260507153955 | 16 | 105 | 6.4 | 11.3 | 0.00 | 0.33 | 0.05 | 61 | 1008.5 |
| 20260507152954 | 16 | 91 | 6.4 | 9.7 | 0.00 | 0.33 | 0.05 | 61 | 1008.5 |
| 20260507151952 | 15 | 60 | 3.2 | 9.7 | 0.00 | 0.33 | 0.05 | 61 | 1008.5 |
| 20260507150920 | 15 | 79 | 3.2 | 6.4 | 0.00 | 0.36 | 0.05 | 61 | 1008.5 |
| 20260507145919 | 15 | 84 | 1.6 | 6.4 | 0.00 | 0.36 | 0.05 | 62 | 1008.8 |
| 20260507144918 | 15 | 78 | 0.0 | 6.4 | 0.00 | 0.36 | 0.05 | 62 | 1008.5 |
| 20260507143917 | 15 | 87 | 3.2 | 6.4 | 0.00 | 0.36 | 0.05 | 62 | 1008.5 |
| 20260507142917 | 15 | 74 | 1.6 | 6.4 | 0.00 | 0.36 | 0.05 | 62 | 1008.1 |
| 20260507141916 | 15 | 80 | 1.6 | 3.2 | 0.00 | 0.36 | 0.05 | 62 | 1008.1 |
| 20260507140915 | 15 | 84 | 0.0 | 8.0 | 0.00 | 0.36 | 0.05 | 62 | 1008.1 |
| 20260507135914 | 15 | 77 | 3.2 | 11.3 | 0.00 | 0.36 | 0.05 | 63 | 1007.8 |
| 20260507134913 | 15 | 99 | 1.6 | 11.3 | 0.00 | 0.36 | 0.05 | 63 | 1008.1 |
| 20260507133911 | 15 | 86 | 0.0 | 9.7 | 0.00 | 0.36 | 0.05 | 63 | 1008.1 |
| 20260507132910 | 15 | 92 | 3.2 | 9.7 | 0.00 | 0.36 | 0.05 | 63 | 1008.1 |
| 20260507131909 | 16 | 79 | 3.2 | 8.0 | 0.00 | 0.36 | 0.05 | 63 | 1008.1 |
| 20260507130837 | 16 | 95 | 1.6 | 4.8 | 0.03 | 0.36 | 0.05 | 63 | 1008.8 |
| 20260507125835 | 16 | 112 | 0.0 | 4.8 | 0.03 | 0.36 | 0.05 | 63 | 1008.8 |
| 20260507124730 | 16 | 107 | 3.2 | 4.8 | 0.03 | 0.36 | 0.05 | 63 | 1008.8 |
| 20260507123729 | 16 | 79 | 0.0 | 1.6 | 0.03 | 0.36 | 0.05 | 64 | 1009.1 |
| 20260507122728 | 16 | 143 | 0.0 | 0.0 | 0.03 | 0.36 | 0.05 | 64 | 1009.1 |
| 20260507121727 | 16 | 150 | 0.0 | 0.0 | 0.03 | 0.36 | 0.05 | 64 | 1009.1 |
| 20260507120727 | 16 | 150 | 0.0 | 0.0 | 0.00 | 0.33 | 0.03 | 64 | 1008.8 |
| 20260507115726 | 16 | 150 | 0.0 | 0.0 | 0.00 | 0.33 | 0.03 | 64 | 1008.5 |
| 20260507114725 | 16 | 118 | 0.0 | 0.0 | 0.00 | 0.33 | 0.03 | 64 | 1008.5 |
| 20260507113723 | 16 | 118 | 0.0 | 0.0 | 0.00 | 0.33 | 0.03 | 64 | 1008.5 |
| 20260507112651 | 16 | 160 | 0.0 | 0.0 | 0.00 | 0.33 | 0.03 | 64 | 1008.1 |
| 20260507111649 | 16 | 160 | 0.0 | 0.0 | 0.00 | 0.33 | 0.03 | 64 | 1008.1 |
| 20260507110648 | 16 | 160 | 0.0 | 0.0 | 0.00 | 0.33 | 0.03 | 64 | 1008.1 |
| 20260507105616 | 16 | 160 | 0.0 | 0.0 | 0.00 | 0.33 | 0.03 | 64 | 1007.8 |
| 20260507104615 | 16 | 160 | 0.0 | 0.0 | 0.00 | 0.33 | 0.03 | 64 | 1007.8 |
| 20260507103614 | 16 | 216 | 0.0 | 0.0 | 0.00 | 0.33 | 0.03 | 64 | 1008.5 |
| 20260507102612 | 16 | 216 | 0.0 | 0.0 | 0.00 | 0.33 | 0.03 | 64 | 1008.1 |
| 20260507101539 | 16 | 216 | 0.0 | 0.0 | 0.00 | 0.33 | 0.03 | 64 | 1007.8 |
| 20260507100538 | 16 | 216 | 0.0 | 1.6 | 0.00 | 0.33 | 0.03 | 64 | 1007.8 |
| 20260507095538 | 16 | 204 | 0.0 | 1.6 | 0.00 | 0.33 | 0.03 | 65 | 1007.5 |
| 20260507094506 | 16 | 232 | 0.0 | 0.0 | 0.00 | 0.33 | 0.03 | 65 | 1007.5 |
| 20260507093505 | 16 | 204 | 0.0 | 1.6 | 0.00 | 0.33 | 0.03 | 65 | 1007.5 |
| 20260507092432 | 16 | 204 | 0.0 | 1.6 | 0.00 | 0.33 | 0.03 | 65 | 1007.1 |
| 20260507091431 | 16 | 253 | 0.0 | 3.2 | 0.00 | 0.33 | 0.03 | 65 | 1007.5 |